TimeEST,TemperatureF,Dew PointF,Humidity,Sea Level PressureIn,VisibilityMPH,Wind Direction,Wind SpeedMPH,Gust SpeedMPH,PrecipitationIn,Events,Conditions,WindDirDegrees,DateUTC
12:53 AM,39.9,30.0,68,30.20,10.0,North,5.8,-,N/A,,Clear,350,2012-02-09 05:53:00
1:53 AM,39.0,28.9,67,30.20,10.0,North,3.5,-,N/A,,Clear,360,2012-02-09 06:53:00
2:53 AM,37.9,28.9,70,30.22,10.0,Calm,Calm,-,N/A,,Clear,0,2012-02-09 07:53:00
3:53 AM,37.9,28.0,68,30.22,10.0,North,4.6,-,N/A,,Clear,350,2012-02-09 08:53:00
4:53 AM,36.0,27.0,70,30.22,10.0,North,4.6,-,N/A,,Clear,360,2012-02-09 09:53:00
5:53 AM,35.1,27.0,72,30.24,10.0,North,6.9,-,N/A,,Clear,360,2012-02-09 10:53:00
6:53 AM,35.1,26.1,70,30.25,10.0,North,8.1,-,N/A,,Clear,10,2012-02-09 11:53:00
7:53 AM,35.1,26.1,70,30.28,10.0,NE,5.8,-,N/A,,Clear,40,2012-02-09 12:53:00
8:53 AM,37.9,26.1,62,30.31,10.0,East,5.8,-,N/A,,Mostly Cloudy,80,2012-02-09 13:53:00
9:53 AM,39.9,27.0,60,30.31,10.0,ENE,5.8,-,N/A,,Overcast,60,2012-02-09 14:53:00
10:53 AM,43.0,27.0,53,30.31,10.0,ESE,4.6,-,N/A,,Overcast,110,2012-02-09 15:53:00
11:53 AM,44.1,27.0,51,30.30,10.0,SE,3.5,-,N/A,,Overcast,130,2012-02-09 16:53:00
12:53 PM,46.9,28.0,48,30.26,10.0,Calm,Calm,-,N/A,,Clear,0,2012-02-09 17:53:00
1:53 PM,48.9,28.9,46,30.23,10.0,SSW,8.1,-,N/A,,Mostly Cloudy,200,2012-02-09 18:53:00
2:53 PM,48.9,28.0,44,30.21,10.0,West,4.6,-,N/A,,Clear,260,2012-02-09 19:53:00
3:53 PM,50.0,28.9,44,30.21,10.0,SW,9.2,-,N/A,,Clear,230,2012-02-09 20:53:00
4:53 PM,50.0,28.9,44,30.21,10.0,SW,5.8,-,N/A,,Clear,220,2012-02-09 21:53:00
5:53 PM,48.0,28.9,48,30.21,10.0,WSW,6.9,-,N/A,,Clear,240,2012-02-09 22:53:00
6:53 PM,46.0,30.0,54,30.20,10.0,SW,3.5,-,N/A,,Clear,220,2012-02-09 23:53:00
7:53 PM,45.0,30.0,56,30.21,10.0,SSW,4.6,-,N/A,,Clear,200,2012-02-10 00:53:00
8:53 PM,44.1,30.0,58,30.21,10.0,SSW,3.5,-,N/A,,Clear,200,2012-02-10 01:53:00
9:53 PM,43.0,30.0,60,30.21,10.0,SSW,5.8,-,N/A,,Clear,210,2012-02-10 02:53:00
10:53 PM,42.1,30.0,62,30.20,10.0,Calm,Calm,-,N/A,,Clear,0,2012-02-10 03:53:00
11:53 PM,41.0,30.0,65,30.19,10.0,West,3.5,-,N/A,,Clear,260,2012-02-10 04:53:00